Wetterdaten: aktuell Montag, 10.12.2018 06:15
Datum Zeit Temp. A. Feuchte A. Luftdruck Regen Wind Richtung Richtung Taupunkt Windchill
10.12.2018 06:15 1,1 C 95 % 1009,5 hPa 0,0 mm 0,0 km/h W-SW 252 0,4 C 1,1 C
10.12.2018 06:14 1,1 C 95 % 1009,4 hPa 0,0 mm 0,0 km/h S-SO 159 0,4 C 1,1 C
10.12.2018 06:13 1,1 C 95 % 1009,4 hPa 0,0 mm 0,0 km/h S-SO 159 0,4 C 1,1 C
10.12.2018 06:12 1,2 C 95 % 1009,4 hPa 0,0 mm 0,0 km/h S-SO 159 0,5 C 1,2 C
10.12.2018 06:11 1,2 C 95 % 1009,3 hPa 0,0 mm 0,0 km/h S-SO 159 0,5 C 1,2 C
10.12.2018 06:10 1,2 C 95 % 1009,3 hPa 0,0 mm 0,0 km/h S-SO 159 0,5 C 1,2 C
10.12.2018 06:09 1,2 C 95 % 1009,3 hPa 0,0 mm 0,0 km/h S-SO 159 0,5 C 1,2 C
10.12.2018 06:08 1,2 C 95 % 1009,3 hPa 0,0 mm 0,0 km/h S-SO 159 0,5 C 1,2 C
10.12.2018 06:07 1,2 C 95 % 1009,3 hPa 0,0 mm 0,0 km/h S-SO 159 0,5 C 1,2 C
10.12.2018 06:06 1,2 C 95 % 1009,2 hPa 0,0 mm 0,0 km/h S-SO 159 0,5 C 1,2 C
10.12.2018 06:05 1,2 C 95 % 1009,2 hPa 0,0 mm 0,0 km/h S-SO 159 0,5 C 1,2 C
10.12.2018 06:04 1,2 C 95 % 1009,2 hPa 0,0 mm 0,0 km/h S-SO 159 0,5 C 1,2 C
10.12.2018 06:03 1,2 C 95 % 1009,1 hPa 0,0 mm 0,0 km/h S-SO 159 0,5 C 1,2 C
10.12.2018 06:02 1,2 C 95 % 1009,1 hPa 0,0 mm 0,0 km/h S-SO 159 0,5 C 1,2 C
10.12.2018 06:01 1,3 C 95 % 1009,2 hPa 0,0 mm 0,0 km/h S-SO 159 0,6 C 1,3 C
10.12.2018 06:00 1,3 C 95 % 1009,2 hPa 0,0 mm 0,0 km/h SO 134 0,6 C 1,3 C
10.12.2018 05:59 1,3 C 95 % 1009,2 hPa 0,0 mm 0,0 km/h SO 134 0,6 C 1,3 C
10.12.2018 05:58 1,3 C 95 % 1009,2 hPa 0,0 mm 0,0 km/h SO 134 0,6 C 1,3 C
10.12.2018 05:57 1,3 C 94 % 1009,2 hPa 0,0 mm 0,0 km/h SO 134 0,4 C 1,3 C
10.12.2018 05:56 1,4 C 94 % 1009,2 hPa 0,0 mm 0,0 km/h SO 134 0,5 C 1,4 C
10.12.2018 05:55 1,4 C 94 % 1009,2 hPa 0,0 mm 0,0 km/h SO 134 0,5 C 1,4 C
10.12.2018 05:54 1,5 C 95 % 1009,2 hPa 0,0 mm 0,0 km/h SO 134 0,8 C 1,5 C
10.12.2018 05:53 1,6 C 95 % 1009,1 hPa 0,0 mm 0,2 km/h SO 134 0,9 C 1,6 C
10.12.2018 05:52 1,6 C 95 % 1009,1 hPa 0,0 mm 3,6 km/h SO 134 0,9 C 1,6 C
10.12.2018 05:51 1,7 C 95 % 1009,2 hPa 0,0 mm 2,1 km/h SO 134 1,0 C 1,7 C
10.12.2018 05:50 1,7 C 95 % 1009,2 hPa 0,0 mm 0,0 km/h W-NW 294 1,0 C 1,7 C
10.12.2018 05:49 1,7 C 95 % 1009,2 hPa 0,0 mm 0,0 km/h W-NW 294 1,0 C 1,7 C
10.12.2018 05:48 1,7 C 95 % 1009,3 hPa 0,0 mm 0,0 km/h W-NW 294 1,0 C 1,7 C
10.12.2018 05:47 1,7 C 95 % 1009,3 hPa 0,0 mm 0,0 km/h W-NW 294 1,0 C 1,7 C
10.12.2018 05:46 1,6 C 95 % 1009,2 hPa 0,0 mm 0,0 km/h W-NW 295 0,9 C 1,6 C
10.12.2018 05:45 1,6 C 95 % 1009,1 hPa 0,0 mm 0,0 km/h W-SW 257 0,9 C 1,6 C
10.12.2018 05:44 1,5 C 95 % 1009,1 hPa 0,0 mm 0,0 km/h W-SW 257 0,8 C 1,5 C
10.12.2018 05:43 1,5 C 95 % 1009,1 hPa 0,0 mm 0,7 km/h W-SW 257 0,8 C 1,5 C
10.12.2018 05:42 1,4 C 95 % 1009,1 hPa 0,0 mm 2,6 km/h W-SW 257 0,7 C 1,4 C
10.12.2018 05:41 1,4 C 95 % 1009,1 hPa 0,0 mm 2,4 km/h W-SW 257 0,7 C 1,4 C
10.12.2018 05:40 1,4 C 95 % 1009,1 hPa 0,0 mm 0,0 km/h O 92 0,7 C 1,4 C
10.12.2018 05:39 1,3 C 95 % 1009,0 hPa 0,0 mm 0,0 km/h O 92 0,6 C 1,3 C
10.12.2018 05:38 1,3 C 95 % 1009,0 hPa 0,0 mm 0,0 km/h O 92 0,6 C 1,3 C
10.12.2018 05:37 1,3 C 95 % 1009,1 hPa 0,0 mm 0,0 km/h O 92 0,6 C 1,3 C
10.12.2018 05:36 1,3 C 95 % 1009,1 hPa 0,0 mm 0,0 km/h O 92 0,6 C 1,3 C
10.12.2018 05:35 1,3 C 95 % 1009,1 hPa 0,0 mm 0,0 km/h O 92 0,6 C 1,3 C
10.12.2018 05:34 1,3 C 95 % 1009,0 hPa 0,0 mm 0,0 km/h O 92 0,6 C 1,3 C
10.12.2018 05:33 1,3 C 95 % 1009,0 hPa 0,0 mm 0,0 km/h O 92 0,6 C 1,3 C
10.12.2018 05:32 1,3 C 95 % 1009,1 hPa 0,0 mm 0,0 km/h O 92 0,6 C 1,3 C
10.12.2018 05:31 1,3 C 95 % 1009,1 hPa 0,0 mm 0,0 km/h O 92 0,6 C 1,3 C
10.12.2018 05:30 1,3 C 95 % 1009,0 hPa 0,0 mm 0,0 km/h O 92 0,6 C 1,3 C
10.12.2018 05:29 1,2 C 95 % 1009,0 hPa 0,0 mm 0,0 km/h O 92 0,5 C 1,2 C
10.12.2018 05:28 1,2 C 95 % 1009,1 hPa 0,0 mm 0,0 km/h O 92 0,5 C 1,2 C
10.12.2018 05:27 1,2 C 95 % 1009,0 hPa 0,0 mm 0,0 km/h O 92 0,5 C 1,2 C
10.12.2018 05:26 1,2 C 95 % 1009,0 hPa 0,0 mm 0,0 km/h O 92 0,5 C 1,2 C
10.12.2018 05:25 1,2 C 95 % 1009,1 hPa 0,0 mm 0,0 km/h O 92 0,5 C 1,2 C
10.12.2018 05:24 1,2 C 95 % 1009,1 hPa 0,0 mm 0,0 km/h O 92 0,5 C 1,2 C
10.12.2018 05:23 1,2 C 95 % 1009,1 hPa 0,0 mm 0,0 km/h O 92 0,5 C 1,2 C
10.12.2018 05:22 1,3 C 95 % 1009,0 hPa 0,0 mm 0,0 km/h O 92 0,6 C 1,3 C
10.12.2018 05:21 1,3 C 95 % 1009,1 hPa 0,0 mm 0,0 km/h O 90 0,6 C 1,3 C
10.12.2018 05:20 1,3 C 95 % 1009,0 hPa 0,0 mm 0,0 km/h O 90 0,6 C 1,3 C
10.12.2018 05:19 1,3 C 95 % 1009,1 hPa 0,0 mm 0,0 km/h O 90 0,6 C 1,3 C
10.12.2018 05:18 1,3 C 95 % 1009,1 hPa 0,0 mm 0,0 km/h O 90 0,6 C 1,3 C
10.12.2018 05:17 1,3 C 95 % 1009,1 hPa 0,0 mm 0,0 km/h O 90 0,6 C 1,3 C
10.12.2018 05:16 1,4 C 95 % 1009,2 hPa 0,0 mm 0,0 km/h O 90 0,7 C 1,4 C
10.12.2018 05:15 1,4 C 95 % 1009,2 hPa 0,0 mm 0,0 km/h O 90 0,7 C 1,4 C
10.12.2018 05:14 1,4 C 95 % 1009,1 hPa 0,0 mm 0,0 km/h O 90 0,7 C 1,4 C
10.12.2018 05:13 1,4 C 95 % 1009,1 hPa 0,0 mm 0,0 km/h O 90 0,7 C 1,4 C
10.12.2018 05:12 1,4 C 95 % 1009,1 hPa 0,0 mm 0,0 km/h SW 232 0,7 C 1,4 C
10.12.2018 05:11 1,3 C 95 % 1009,1 hPa 0,0 mm 0,0 km/h SW 232 0,6 C 1,3 C
10.12.2018 05:10 1,3 C 95 % 1009,1 hPa 0,0 mm 0,0 km/h SW 232 0,6 C 1,3 C
10.12.2018 05:09 1,2 C 95 % 1009,1 hPa 0,0 mm 0,0 km/h SW 232 0,5 C 1,2 C
10.12.2018 05:08 1,2 C 95 % 1009,1 hPa 0,0 mm 1,9 km/h SW 232 0,5 C 1,2 C
10.12.2018 05:07 1,1 C 95 % 1009,0 hPa 0,0 mm 3,3 km/h SW 232 0,4 C 1,1 C
10.12.2018 05:06 1,0 C 95 % 1009,1 hPa 0,0 mm 5,0 km/h W-SW 251 0,3 C 1,0 C
10.12.2018 05:05 0,9 C 95 % 1009,1 hPa 0,0 mm 5,4 km/h W 267 0,2 C 0,9 C
10.12.2018 05:04 0,8 C 95 % 1009,1 hPa 0,0 mm 5,5 km/h W 259 0,1 C 0,8 C
10.12.2018 05:03 0,7 C 95 % 1009,1 hPa 0,2 mm 8,1 km/h W-SW 258 -0,0 C -1,0 C
10.12.2018 05:02 0,7 C 95 % 1009,1 hPa 0,0 mm 7,9 km/h W 276 -0,0 C -0,8 C
10.12.2018 05:01 0,7 C 95 % 1009,0 hPa 0,0 mm 0,7 km/h W-SW 254 -0,0 C 0,7 C
10.12.2018 05:00 0,7 C 95 % 1009,0 hPa 0,0 mm 0,0 km/h NO 43 -0,0 C 0,7 C
10.12.2018 04:59 0,8 C 95 % 1009,0 hPa 0,0 mm 0,0 km/h NO 43 0,1 C 0,8 C
10.12.2018 04:58 0,8 C 95 % 1009,0 hPa 0,0 mm 1,1 km/h NO 43 0,1 C 0,8 C
10.12.2018 04:57 0,8 C 95 % 1009,0 hPa 0,0 mm 7,7 km/h NO 46 0,1 C -0,5 C
10.12.2018 04:56 0,8 C 95 % 1009,0 hPa 0,0 mm 7,5 km/h N-NO 22 0,1 C -0,3 C
10.12.2018 04:55 0,7 C 95 % 1009,0 hPa 0,0 mm 0,7 km/h W-NW 298 -0,0 C 0,7 C
10.12.2018 04:54 0,7 C 95 % 1008,9 hPa 0,0 mm 4,0 km/h W-NW 298 -0,0 C 0,7 C
10.12.2018 04:53 0,6 C 95 % 1008,9 hPa 0,0 mm 6,0 km/h W 276 -0,1 C 0,6 C
10.12.2018 04:52 0,6 C 94 % 1008,9 hPa 0,0 mm 6,4 km/h W-SW 248 -0,3 C 0,6 C
10.12.2018 04:51 0,5 C 95 % 1008,8 hPa 0,0 mm 7,6 km/h W-SW 238 -0,2 C -0,7 C
10.12.2018 04:50 0,5 C 94 % 1008,8 hPa 0,0 mm 7,2 km/h SW 232 -0,4 C -0,3 C
10.12.2018 04:49 0,5 C 94 % 1008,7 hPa 0,0 mm 6,2 km/h S-SW 204 -0,4 C 0,5 C
10.12.2018 04:48 0,5 C 94 % 1008,6 hPa 0,0 mm 6,0 km/h S-SW 195 -0,4 C 0,5 C
10.12.2018 04:47 0,6 C 94 % 1008,8 hPa 0,0 mm 0,7 km/h N 5 -0,3 C 0,6 C
10.12.2018 04:46 0,7 C 95 % 1008,9 hPa 0,0 mm 0,0 km/h N 5 -0,0 C 0,7 C
10.12.2018 04:45 0,7 C 95 % 1008,9 hPa 0,0 mm 2,5 km/h N 5 -0,0 C 0,7 C
10.12.2018 04:44 0,8 C 95 % 1009,0 hPa 0,0 mm 8,4 km/h N 9 0,1 C -1,2 C
10.12.2018 04:43 0,8 C 95 % 1009,0 hPa 0,0 mm 13,7 km/h N 355 0,1 C -5,2 C
10.12.2018 04:42 0,7 C 94 % 1008,8 hPa 0,0 mm 8,3 km/h N-NW 331 -0,2 C -1,2 C
10.12.2018 04:41 0,5 C 94 % 1008,6 hPa 0,0 mm 6,4 km/h W-SW 252 -0,4 C 0,5 C
10.12.2018 04:40 0,4 C 94 % 1008,5 hPa 0,0 mm 5,1 km/h SW 216 -0,5 C 0,4 C
10.12.2018 04:39 0,5 C 95 % 1008,6 hPa 0,0 mm 4,4 km/h S-SW 203 -0,2 C 0,5 C
10.12.2018 04:38 0,6 C 95 % 1008,7 hPa 0,0 mm 0,0 km/h SW 229 -0,1 C 0,6 C
10.12.2018 04:37 0,6 C 95 % 1008,8 hPa 0,0 mm 0,0 km/h N 355 -0,1 C 0,6 C
10.12.2018 04:36 0,6 C 95 % 1008,8 hPa 0,0 mm 0,0 km/h N 355 -0,1 C 0,6 C
10.12.2018 04:35 0,7 C 95 % 1008,8 hPa 0,0 mm 0,0 km/h N 355 -0,0 C 0,7 C
10.12.2018 04:34 0,7 C 95 % 1008,8 hPa 0,0 mm 0,0 km/h N 355 -0,0 C 0,7 C
10.12.2018 04:33 0,6 C 95 % 1008,7 hPa 0,0 mm 1,1 km/h N 355 -0,1 C 0,6 C
10.12.2018 04:32 0,6 C 95 % 1008,6 hPa 0,0 mm 3,4 km/h W 281 -0,1 C 0,6 C
10.12.2018 04:31 0,5 C 95 % 1008,7 hPa 0,0 mm 6,1 km/h W-SW 255 -0,2 C 0,5 C
10.12.2018 04:30 0,4 C 95 % 1008,7 hPa 0,0 mm 5,8 km/h W-SW 252 -0,3 C 0,4 C
10.12.2018 04:29 0,3 C 95 % 1008,7 hPa 0,0 mm 3,6 km/h W-SW 252 -0,4 C 0,3 C
10.12.2018 04:28 0,3 C 94 % 1008,7 hPa 0,0 mm 0,1 km/h N 355 -0,5 C 0,3 C
10.12.2018 04:27 0,3 C 94 % 1008,7 hPa 0,0 mm 2,6 km/h N 355 -0,5 C 0,3 C
10.12.2018 04:26 0,3 C 94 % 1008,7 hPa 0,0 mm 4,1 km/h N 360 -0,5 C 0,3 C
10.12.2018 04:25 0,3 C 94 % 1008,7 hPa 0,0 mm 3,4 km/h W 260 -0,5 C 0,3 C
10.12.2018 04:24 0,3 C 94 % 1008,6 hPa 0,0 mm 5,7 km/h W-SW 254 -0,5 C 0,3 C
10.12.2018 04:23 0,3 C 94 % 1008,6 hPa 0,0 mm 3,4 km/h W 269 -0,5 C 0,3 C
10.12.2018 04:22 0,4 C 94 % 1008,6 hPa 0,0 mm 1,9 km/h W-NW 296 -0,5 C 0,4 C
10.12.2018 04:21 0,4 C 94 % 1008,6 hPa 0,0 mm 0,0 km/h W-NW 296 -0,5 C 0,4 C
10.12.2018 04:20 0,4 C 94 % 1008,6 hPa 0,0 mm 0,0 km/h W-NW 296 -0,5 C 0,4 C
10.12.2018 04:19 0,5 C 94 % 1008,6 hPa 0,0 mm 0,0 km/h W-NW 296 -0,4 C 0,5 C
10.12.2018 04:18 0,6 C 94 % 1008,6 hPa 0,0 mm 0,0 km/h W-NW 296 -0,3 C 0,6 C
10.12.2018 04:17 0,6 C 94 % 1008,5 hPa 0,0 mm 0,0 km/h W-NW 296 -0,3 C 0,6 C
10.12.2018 04:16 0,6 C 94 % 1008,6 hPa 0,0 mm 0,0 km/h W-NW 296 -0,3 C 0,6 C
10.12.2018 04:15 0,5 C 94 % 1008,5 hPa 0,0 mm 0,0 km/h W-NW 296 -0,4 C 0,5 C
10.12.2018 04:14 0,5 C 94 % 1008,5 hPa 0,0 mm 0,0 km/h W-NW 296 -0,4 C 0,5 C
10.12.2018 04:13 0,5 C 95 % 1008,6 hPa 0,0 mm 0,0 km/h W-NW 296 -0,2 C 0,5 C
10.12.2018 04:12 0,5 C 95 % 1008,5 hPa 0,0 mm 0,0 km/h W-NW 296 -0,2 C 0,5 C
10.12.2018 04:11 0,5 C 94 % 1008,5 hPa 0,0 mm 0,0 km/h W-NW 296 -0,4 C 0,5 C
10.12.2018 04:10 0,5 C 94 % 1008,5 hPa 0,0 mm 0,0 km/h W-NW 296 -0,4 C 0,5 C
10.12.2018 04:09 0,5 C 94 % 1008,5 hPa 0,0 mm 0,0 km/h W-NW 296 -0,4 C 0,5 C
10.12.2018 04:08 0,5 C 94 % 1008,5 hPa 0,0 mm 0,0 km/h W-NW 296 -0,4 C 0,5 C
10.12.2018 04:07 0,5 C 94 % 1008,5 hPa 0,0 mm 0,0 km/h W-NW 296 -0,4 C 0,5 C
10.12.2018 04:06 0,5 C 95 % 1008,5 hPa 0,0 mm 0,0 km/h W-NW 296 -0,2 C 0,5 C
10.12.2018 04:05 0,5 C 95 % 1008,5 hPa 0,0 mm 0,0 km/h W-NW 296 -0,2 C 0,5 C
10.12.2018 04:04 0,6 C 94 % 1008,5 hPa 0,0 mm 0,0 km/h W-NW 296 -0,3 C 0,6 C
10.12.2018 04:03 0,5 C 94 % 1008,5 hPa 0,0 mm 0,4 km/h W-NW 296 -0,4 C 0,5 C
10.12.2018 04:02 0,5 C 94 % 1008,5 hPa 0,0 mm 1,6 km/h W-NW 296 -0,4 C 0,5 C
10.12.2018 04:01 0,5 C 94 % 1008,4 hPa 0,0 mm 1,7 km/h W-NW 296 -0,4 C 0,5 C
10.12.2018 04:00 0,4 C 94 % 1008,4 hPa 0,0 mm 2,5 km/h W-NW 296 -0,5 C 0,4 C
10.12.2018 03:59 0,4 C 94 % 1008,5 hPa 0,0 mm 1,8 km/h W-NW 296 -0,5 C 0,4 C
10.12.2018 03:58 0,3 C 94 % 1008,5 hPa 0,0 mm 2,8 km/h W-NW 296 -0,5 C 0,3 C
10.12.2018 03:57 0,3 C 94 % 1008,5 hPa 0,0 mm 0,0 km/h W-NW 296 -0,5 C 0,3 C
10.12.2018 03:56 0,4 C 94 % 1008,4 hPa 0,0 mm 0,1 km/h W-NW 296 -0,5 C 0,4 C
10.12.2018 03:55 0,4 C 94 % 1008,4 hPa 0,0 mm 0,9 km/h W-NW 296 -0,5 C 0,4 C
10.12.2018 03:54 0,4 C 94 % 1008,4 hPa 0,0 mm 0,0 km/h W-NW 297 -0,5 C 0,4 C
10.12.2018 03:53 0,5 C 94 % 1008,4 hPa 0,0 mm 0,0 km/h W-NW 297 -0,4 C 0,5 C
10.12.2018 03:52 0,6 C 94 % 1008,4 hPa 0,0 mm 0,0 km/h W-NW 297 -0,3 C 0,6 C
10.12.2018 03:51 0,7 C 94 % 1008,4 hPa 0,0 mm 0,0 km/h W-NW 297 -0,2 C 0,7 C
10.12.2018 03:50 0,7 C 94 % 1008,4 hPa 0,0 mm 0,0 km/h W-NW 297 -0,2 C 0,7 C
10.12.2018 03:49 0,8 C 94 % 1008,3 hPa 0,0 mm 0,0 km/h W-NW 297 -0,1 C 0,8 C
10.12.2018 03:48 0,9 C 94 % 1008,4 hPa 0,0 mm 0,0 km/h W-NW 297 0,0 C 0,9 C
10.12.2018 03:47 1,0 C 95 % 1008,4 hPa 0,0 mm 0,0 km/h W-NW 297 0,3 C 1,0 C
10.12.2018 03:46 1,1 C 95 % 1008,4 hPa 0,0 mm 0,0 km/h W-NW 297 0,4 C 1,1 C
10.12.2018 03:45 1,1 C 95 % 1008,4 hPa 0,0 mm 0,0 km/h W-NW 297 0,4 C 1,1 C
10.12.2018 03:44 1,0 C 95 % 1008,4 hPa 0,0 mm 0,0 km/h W-NW 297 0,3 C 1,0 C
10.12.2018 03:43 1,0 C 95 % 1008,4 hPa 0,0 mm 0,0 km/h W-NW 297 0,3 C 1,0 C
10.12.2018 03:42 1,0 C 95 % 1008,4 hPa 0,0 mm 0,0 km/h W-NW 297 0,3 C 1,0 C
10.12.2018 03:41 0,9 C 95 % 1008,4 hPa 0,0 mm 0,0 km/h W-NW 297 0,2 C 0,9 C
10.12.2018 03:40 0,9 C 95 % 1008,3 hPa 0,0 mm 0,0 km/h W-NW 297 0,2 C 0,9 C
10.12.2018 03:39 0,9 C 95 % 1008,3 hPa 0,0 mm 0,0 km/h W-NW 297 0,2 C 0,9 C
10.12.2018 03:38 0,8 C 95 % 1008,4 hPa 0,0 mm 0,0 km/h W-NW 297 0,1 C 0,8 C
10.12.2018 03:37 0,8 C 95 % 1008,4 hPa 0,0 mm 0,0 km/h W-NW 297 0,1 C 0,8 C
10.12.2018 03:36 0,8 C 94 % 1008,3 hPa 0,0 mm 0,0 km/h W-NW 297 -0,1 C 0,8 C
10.12.2018 03:35 0,8 C 94 % 1008,3 hPa 0,0 mm 0,0 km/h W-NW 297 -0,1 C 0,8 C
10.12.2018 03:34 0,8 C 94 % 1008,3 hPa 0,0 mm 0,0 km/h W-NW 297 -0,1 C 0,8 C
10.12.2018 03:33 0,8 C 94 % 1008,3 hPa 0,0 mm 0,0 km/h W-NW 297 -0,1 C 0,8 C
10.12.2018 03:32 0,8 C 95 % 1008,3 hPa 0,0 mm 0,0 km/h W-NW 297 0,1 C 0,8 C
10.12.2018 03:31 0,8 C 95 % 1008,2 hPa 0,0 mm 0,0 km/h W-NW 297 0,1 C 0,8 C
10.12.2018 03:30 0,8 C 95 % 1008,2 hPa 0,0 mm 0,0 km/h W-NW 297 0,1 C 0,8 C
10.12.2018 03:29 0,8 C 95 % 1008,2 hPa 0,0 mm 0,0 km/h W-NW 297 0,1 C 0,8 C
10.12.2018 03:28 0,7 C 95 % 1008,3 hPa 0,0 mm 0,0 km/h W-NW 297 -0,0 C 0,7 C
10.12.2018 03:27 0,8 C 95 % 1008,2 hPa 0,0 mm 0,0 km/h W-NW 297 0,1 C 0,8 C
10.12.2018 03:26 0,7 C 95 % 1008,1 hPa 0,0 mm 0,0 km/h W-NW 297 -0,0 C 0,7 C
10.12.2018 03:25 0,7 C 95 % 1008,1 hPa 0,0 mm 0,0 km/h W-NW 297 -0,0 C 0,7 C
10.12.2018 03:24 0,7 C 95 % 1008,1 hPa 0,0 mm 0,0 km/h W-NW 297 -0,0 C 0,7 C
10.12.2018 03:23 0,6 C 95 % 1008,2 hPa 0,0 mm 0,3 km/h W-NW 297 -0,1 C 0,6 C
10.12.2018 03:22 0,5 C 95 % 1008,2 hPa 0,0 mm 3,0 km/h W-NW 297 -0,2 C 0,5 C
10.12.2018 03:21 0,5 C 94 % 1008,2 hPa 0,0 mm 3,6 km/h W-NW 297 -0,4 C 0,5 C
10.12.2018 03:20 0,4 C 94 % 1008,2 hPa 0,0 mm 3,4 km/h W-NW 297 -0,5 C 0,4 C
10.12.2018 03:19 0,4 C 94 % 1008,2 hPa 0,0 mm 3,2 km/h W-NW 296 -0,5 C 0,4 C
10.12.2018 03:18 0,4 C 94 % 1008,1 hPa 0,0 mm 3,3 km/h W-NW 296 -0,5 C 0,4 C
10.12.2018 03:17 0,4 C 94 % 1008,1 hPa 0,0 mm 0,0 km/h W-NW 295 -0,5 C 0,4 C
10.12.2018 03:16 0,4 C 94 % 1008,1 hPa 0,0 mm 0,0 km/h W-NW 295 -0,5 C 0,4 C
10.12.2018 03:15 0,4 C 94 % 1008,1 hPa 0,0 mm 0,0 km/h W-NW 295 -0,5 C 0,4 C
10.12.2018 03:14 0,4 C 94 % 1008,1 hPa 0,0 mm 0,0 km/h W-NW 295 -0,5 C 0,4 C
10.12.2018 03:13 0,4 C 94 % 1008,1 hPa 0,0 mm 0,0 km/h W-NW 295 -0,5 C 0,4 C
10.12.2018 03:12 0,3 C 94 % 1008,1 hPa 0,0 mm 0,0 km/h W-NW 295 -0,5 C 0,3 C
10.12.2018 03:11 0,3 C 94 % 1008,1 hPa 0,0 mm 0,0 km/h W-NW 295 -0,5 C 0,3 C
10.12.2018 03:10 0,3 C 94 % 1008,1 hPa 0,0 mm 0,0 km/h W-NW 295 -0,5 C 0,3 C
10.12.2018 03:09 0,3 C 94 % 1008,1 hPa 0,0 mm 0,0 km/h W-NW 295 -0,5 C 0,3 C
10.12.2018 03:08 0,3 C 94 % 1008,1 hPa 0,0 mm 0,0 km/h W-NW 295 -0,5 C 0,3 C
10.12.2018 03:07 0,3 C 94 % 1008,1 hPa 0,0 mm 1,7 km/h W-NW 295 -0,5 C 0,3 C
10.12.2018 03:06 0,3 C 94 % 1008,1 hPa 0,0 mm 2,5 km/h W-NW 294 -0,5 C 0,3 C
10.12.2018 03:05 0,3 C 94 % 1008,2 hPa 0,0 mm 2,4 km/h W-NW 294 -0,5 C 0,3 C
10.12.2018 03:04 0,3 C 94 % 1008,1 hPa 0,0 mm 3,4 km/h W-NW 293 -0,5 C 0,3 C
10.12.2018 03:03 0,4 C 94 % 1008,1 hPa 0,0 mm 0,0 km/h W-NW 292 -0,5 C 0,4 C
10.12.2018 03:02 0,3 C 94 % 1008,1 hPa 0,0 mm 0,0 km/h W-NW 292 -0,5 C 0,3 C
10.12.2018 03:01 0,3 C 94 % 1008,1 hPa 0,0 mm 0,0 km/h W-NW 292 -0,5 C 0,3 C
10.12.2018 03:00 0,4 C 94 % 1008,1 hPa 0,0 mm 0,0 km/h W-NW 292 -0,5 C 0,4 C
10.12.2018 02:59 0,4 C 94 % 1008,1 hPa 0,0 mm 0,0 km/h W-NW 292 -0,5 C 0,4 C
10.12.2018 02:58 0,4 C 94 % 1008,1 hPa 0,0 mm 0,0 km/h W-NW 292 -0,5 C 0,4 C
10.12.2018 02:57 0,4 C 94 % 1008,1 hPa 0,0 mm 0,0 km/h W-NW 292 -0,5 C 0,4 C
10.12.2018 02:56 0,4 C 94 % 1008,2 hPa 0,0 mm 0,0 km/h W-NW 292 -0,5 C 0,4 C
10.12.2018 02:55 0,4 C 94 % 1008,2 hPa 0,0 mm 0,0 km/h W-NW 292 -0,5 C 0,4 C
10.12.2018 02:54 0,4 C 94 % 1008,2 hPa 0,0 mm 0,0 km/h W-NW 292 -0,5 C 0,4 C
10.12.2018 02:53 0,4 C 94 % 1008,1 hPa 0,0 mm 0,0 km/h W-NW 292 -0,5 C 0,4 C
10.12.2018 02:52 0,5 C 94 % 1008,2 hPa 0,0 mm 0,0 km/h O-NO 57 -0,4 C 0,5 C
10.12.2018 02:51 0,6 C 94 % 1008,2 hPa 0,0 mm 0,0 km/h O-NO 57 -0,3 C 0,6 C
10.12.2018 02:50 0,6 C 94 % 1008,2 hPa 0,0 mm 0,0 km/h O-NO 57 -0,3 C 0,6 C
10.12.2018 02:49 0,6 C 94 % 1008,2 hPa 0,0 mm 0,0 km/h O-NO 57 -0,3 C 0,6 C
10.12.2018 02:48 0,7 C 94 % 1008,3 hPa 0,0 mm 1,9 km/h O-NO 57 -0,2 C 0,7 C
10.12.2018 02:47 0,6 C 94 % 1008,2 hPa 0,0 mm 2,9 km/h O-NO 58 -0,3 C 0,6 C
10.12.2018 02:46 0,6 C 94 % 1008,3 hPa 0,0 mm 0,0 km/h O-NO 59 -0,3 C 0,6 C
10.12.2018 02:45 0,6 C 94 % 1008,3 hPa 0,0 mm 0,0 km/h O-NO 59 -0,3 C 0,6 C
10.12.2018 02:44 0,6 C 94 % 1008,3 hPa 0,0 mm 0,0 km/h O-NO 59 -0,3 C 0,6 C
10.12.2018 02:43 0,7 C 94 % 1008,3 hPa 0,0 mm 0,8 km/h O-NO 59 -0,2 C 0,7 C
10.12.2018 02:42 0,7 C 94 % 1008,3 hPa 0,0 mm 0,5 km/h O-NO 59 -0,2 C 0,7 C
10.12.2018 02:41 0,7 C 94 % 1008,3 hPa 0,0 mm 0,0 km/h O-NO 61 -0,2 C 0,7 C
10.12.2018 02:40 0,8 C 94 % 1008,3 hPa 0,0 mm 0,0 km/h O-NO 61 -0,1 C 0,8 C
10.12.2018 02:39 0,8 C 94 % 1008,3 hPa 0,0 mm 0,0 km/h O-NO 61 -0,1 C 0,8 C
10.12.2018 02:38 0,8 C 94 % 1008,3 hPa 0,0 mm 0,3 km/h O-NO 61 -0,1 C 0,8 C
10.12.2018 02:37 0,8 C 94 % 1008,3 hPa 0,0 mm 0,3 km/h O-NO 61 -0,1 C 0,8 C
10.12.2018 02:36 0,8 C 95 % 1008,2 hPa 0,0 mm 0,2 km/h W-SW 246 0,1 C 0,8 C
10.12.2018 02:35 0,8 C 95 % 1008,1 hPa 0,0 mm 1,8 km/h W-SW 246 0,1 C 0,8 C
10.12.2018 02:34 0,8 C 94 % 1008,2 hPa 0,0 mm 0,0 km/h W-SW 246 -0,1 C 0,8 C
10.12.2018 02:33 0,8 C 94 % 1008,3 hPa 0,0 mm 2,6 km/h W-SW 246 -0,1 C 0,8 C
10.12.2018 02:32 0,8 C 95 % 1008,3 hPa 0,0 mm 5,1 km/h W-SW 245 0,1 C 0,8 C
10.12.2018 02:31 0,8 C 95 % 1008,2 hPa 0,0 mm 6,5 km/h NW 311 0,1 C 0,7 C
10.12.2018 02:30 0,8 C 95 % 1008,2 hPa 0,0 mm 0,0 km/h NW 324 0,1 C 0,8 C
10.12.2018 02:29 0,8 C 95 % 1008,2 hPa 0,0 mm 0,0 km/h W 272 0,1 C 0,8 C
10.12.2018 02:28 0,7 C 95 % 1008,2 hPa 0,0 mm 2,5 km/h W 272 -0,0 C 0,7 C
10.12.2018 02:27 0,7 C 95 % 1008,2 hPa 0,0 mm 0,3 km/h W 272 -0,0 C 0,7 C
10.12.2018 02:26 0,7 C 95 % 1008,1 hPa 0,0 mm 0,0 km/h W-NW 294 -0,0 C 0,7 C
10.12.2018 02:25 0,6 C 95 % 1008,2 hPa 0,0 mm 0,0 km/h W-NW 294 -0,1 C 0,6 C
10.12.2018 02:24 0,6 C 95 % 1008,2 hPa 0,0 mm 0,0 km/h W-NW 294 -0,1 C 0,6 C
10.12.2018 02:23 0,6 C 95 % 1008,1 hPa 0,0 mm 0,0 km/h W-NW 294 -0,1 C 0,6 C
10.12.2018 02:22 0,6 C 94 % 1008,1 hPa 0,0 mm 0,0 km/h W-NW 294 -0,3 C 0,6 C
10.12.2018 02:21 0,6 C 95 % 1008,1 hPa 0,0 mm 0,0 km/h W-NW 294 -0,1 C 0,6 C
10.12.2018 02:20 0,6 C 95 % 1008,1 hPa 0,0 mm 0,0 km/h W-NW 294 -0,1 C 0,6 C
10.12.2018 02:19 0,6 C 95 % 1008,1 hPa 0,0 mm 0,0 km/h W-NW 294 -0,1 C 0,6 C
10.12.2018 02:18 0,6 C 94 % 1008,1 hPa 0,0 mm 0,1 km/h W-NW 294 -0,3 C 0,6 C
10.12.2018 02:17 0,6 C 95 % 1008,1 hPa 0,0 mm 0,0 km/h W-NW 294 -0,1 C 0,6 C
10.12.2018 02:16 0,5 C 94 % 1008,1 hPa 0,0 mm 0,0 km/h W-NW 294 -0,4 C 0,5 C
10.12.2018 02:15 0,5 C 94 % 1008,1 hPa 0,0 mm 0,0 km/h W-NW 294 -0,4 C 0,5 C
10.12.2018 02:14 0,6 C 94 % 1008,0 hPa 0,0 mm 0,0 km/h W-NW 294 -0,3 C 0,6 C
10.12.2018 02:13 0,6 C 94 % 1008,0 hPa 0,0 mm 0,0 km/h W-NW 294 -0,3 C 0,6 C
10.12.2018 02:12 0,5 C 94 % 1008,0 hPa 0,0 mm 0,0 km/h W-NW 294 -0,4 C 0,5 C
10.12.2018 02:11 0,6 C 94 % 1008,0 hPa 0,0 mm 0,0 km/h W-NW 294 -0,3 C 0,6 C
10.12.2018 02:10 0,5 C 94 % 1008,0 hPa 0,0 mm 0,0 km/h W-NW 294 -0,4 C 0,5 C
10.12.2018 02:09 0,5 C 94 % 1008,0 hPa 0,0 mm 0,0 km/h W-NW 294 -0,4 C 0,5 C
10.12.2018 02:08 0,5 C 94 % 1008,0 hPa 0,0 mm 0,0 km/h W-NW 294 -0,4 C 0,5 C
10.12.2018 02:07 0,6 C 94 % 1008,0 hPa 0,0 mm 0,0 km/h W-NW 294 -0,3 C 0,6 C
10.12.2018 02:06 0,5 C 94 % 1008,0 hPa 0,0 mm 0,0 km/h W-NW 294 -0,4 C 0,5 C
10.12.2018 02:05 0,5 C 94 % 1008,0 hPa 0,0 mm 0,0 km/h W-NW 294 -0,4 C 0,5 C
10.12.2018 02:04 0,5 C 94 % 1008,0 hPa 0,0 mm 1,9 km/h W-NW 294 -0,4 C 0,5 C
10.12.2018 02:03 0,5 C 94 % 1008,0 hPa 0,0 mm 0,6 km/h W-NW 294 -0,4 C 0,5 C
10.12.2018 02:02 0,5 C 94 % 1008,0 hPa 0,0 mm 0,0 km/h N-NW 329 -0,4 C 0,5 C
10.12.2018 02:01 0,5 C 94 % 1008,0 hPa 0,0 mm 0,0 km/h N-NW 329 -0,4 C 0,5 C
10.12.2018 02:00 0,5 C 94 % 1007,9 hPa 0,0 mm 0,0 km/h N-NW 329 -0,4 C 0,5 C
10.12.2018 01:59 0,5 C 94 % 1007,9 hPa 0,0 mm 0,0 km/h N-NW 329 -0,4 C 0,5 C
10.12.2018 01:58 0,4 C 94 % 1008,0 hPa 0,0 mm 0,0 km/h N-NW 329 -0,5 C 0,4 C
10.12.2018 01:57 0,4 C 94 % 1008,0 hPa 0,0 mm 0,3 km/h N-NW 329 -0,5 C 0,4 C
10.12.2018 01:56 0,4 C 94 % 1007,9 hPa 0,0 mm 3,9 km/h N-NW 329 -0,5 C 0,4 C
10.12.2018 01:55 0,4 C 94 % 1007,9 hPa 0,0 mm 2,8 km/h N-NW 329 -0,5 C 0,4 C
10.12.2018 01:54 0,4 C 94 % 1007,7 hPa 0,0 mm 0,0 km/h N-NW 329 -0,5 C 0,4 C
10.12.2018 01:53 0,4 C 94 % 1007,7 hPa 0,0 mm 0,0 km/h N-NW 329 -0,5 C 0,4 C
10.12.2018 01:52 0,4 C 94 % 1007,7 hPa 0,0 mm 0,0 km/h N-NW 329 -0,5 C 0,4 C
10.12.2018 01:51 0,4 C 94 % 1007,7 hPa 0,0 mm 0,0 km/h N-NW 329 -0,5 C 0,4 C
10.12.2018 01:50 0,3 C 94 % 1007,8 hPa 0,0 mm 0,0 km/h N-NW 329 -0,5 C 0,3 C
10.12.2018 01:49 0,3 C 94 % 1007,7 hPa 0,0 mm 0,0 km/h N-NW 329 -0,5 C 0,3 C
10.12.2018 01:48 0,4 C 94 % 1007,7 hPa 0,0 mm 0,0 km/h N-NW 329 -0,5 C 0,4 C
10.12.2018 01:47 0,3 C 94 % 1007,7 hPa 0,0 mm 0,0 km/h N-NW 329 -0,5 C 0,3 C
10.12.2018 01:46 0,3 C 94 % 1007,7 hPa 0,0 mm 0,0 km/h N-NW 329 -0,5 C 0,3 C
10.12.2018 01:45 0,3 C 94 % 1007,6 hPa 0,0 mm 0,0 km/h N-NW 329 -0,5 C 0,3 C
10.12.2018 01:44 0,3 C 94 % 1007,7 hPa 0,0 mm 0,0 km/h N-NW 329 -0,5 C 0,3 C
10.12.2018 01:43 0,3 C 94 % 1007,7 hPa 0,0 mm 2,3 km/h N-NW 329 -0,5 C 0,3 C
10.12.2018 01:42 0,3 C 94 % 1007,7 hPa 0,0 mm 3,6 km/h N-NW 329 -0,5 C 0,3 C
10.12.2018 01:41 0,3 C 94 % 1007,7 hPa 0,0 mm 0,5 km/h N-NW 329 -0,5 C 0,3 C
10.12.2018 01:40 0,3 C 94 % 1007,6 hPa 0,0 mm 0,0 km/h N-NO 24 -0,5 C 0,3 C
10.12.2018 01:39 0,4 C 94 % 1007,6 hPa 0,0 mm 0,0 km/h N-NO 24 -0,5 C 0,4 C
10.12.2018 01:38 0,4 C 94 % 1007,6 hPa 0,0 mm 0,0 km/h N-NO 24 -0,5 C 0,4 C
10.12.2018 01:37 0,4 C 94 % 1007,5 hPa 0,0 mm 4,5 km/h N-NO 24 -0,5 C 0,4 C
10.12.2018 01:36 0,4 C 94 % 1007,5 hPa 0,0 mm 1,3 km/h N-NO 20 -0,5 C 0,4 C
10.12.2018 01:35 0,4 C 94 % 1007,5 hPa 0,0 mm 0,0 km/h W 263 -0,5 C 0,4 C
10.12.2018 01:34 0,3 C 94 % 1007,5 hPa 0,0 mm 0,4 km/h W 263 -0,5 C 0,3 C
10.12.2018 01:33 0,3 C 94 % 1007,5 hPa 0,0 mm 0,0 km/h S-SO 155 -0,5 C 0,3 C
10.12.2018 01:32 0,3 C 94 % 1007,3 hPa 0,0 mm 0,6 km/h S-SO 151 -0,5 C 0,3 C
10.12.2018 01:31 0,4 C 94 % 1007,3 hPa 0,0 mm 4,3 km/h S-SW 200 -0,5 C 0,4 C
10.12.2018 01:30 0,4 C 94 % 1007,3 hPa 0,0 mm 2,4 km/h S-SW 200 -0,5 C 0,4 C
10.12.2018 01:29 0,4 C 94 % 1007,3 hPa 0,0 mm 3,8 km/h S-SW 200 -0,5 C 0,4 C
10.12.2018 01:28 0,4 C 94 % 1007,4 hPa 0,0 mm 2,5 km/h SW 225 -0,5 C 0,4 C
10.12.2018 01:27 0,5 C 94 % 1007,5 hPa 0,0 mm 2,3 km/h NW 306 -0,4 C 0,5 C
10.12.2018 01:26 0,6 C 94 % 1007,6 hPa 0,0 mm 8,1 km/h NW 325 -0,3 C -1,1 C
10.12.2018 01:25 0,6 C 94 % 1007,5 hPa 0,0 mm 7,6 km/h N 349 -0,3 C -0,6 C
10.12.2018 01:24 0,7 C 95 % 1007,4 hPa 0,0 mm 4,3 km/h N 355 -0,0 C 0,7 C
10.12.2018 01:23 0,7 C 95 % 1007,4 hPa 0,0 mm 6,4 km/h N 355 -0,0 C 0,7 C
10.12.2018 01:22 0,7 C 95 % 1007,3 hPa 0,0 mm 3,6 km/h N 355 -0,0 C 0,7 C
10.12.2018 01:21 0,7 C 95 % 1007,3 hPa 0,0 mm 4,7 km/h N-NW 328 -0,0 C 0,7 C
10.12.2018 01:20 0,6 C 95 % 1007,3 hPa 0,0 mm 0,6 km/h W-NW 298 -0,1 C 0,6 C
10.12.2018 01:19 0,6 C 95 % 1007,3 hPa 0,0 mm 0,0 km/h W 274 -0,1 C 0,6 C
10.12.2018 01:18 0,5 C 95 % 1007,2 hPa 0,0 mm 0,0 km/h W 274 -0,2 C 0,5 C
10.12.2018 01:17 0,4 C 94 % 1007,3 hPa 0,0 mm 0,0 km/h W 274 -0,5 C 0,4 C
10.12.2018 01:16 0,4 C 94 % 1007,2 hPa 0,0 mm 0,0 km/h W 274 -0,5 C 0,4 C
10.12.2018 01:15 0,3 C 94 % 1007,3 hPa 0,0 mm 0,0 km/h W-NW 290 -0,5 C 0,3 C
10.12.2018 01:14 0,3 C 94 % 1007,3 hPa 0,0 mm 0,0 km/h N-NW 331 -0,5 C 0,3 C
10.12.2018 01:13 0,3 C 94 % 1007,2 hPa 0,0 mm 0,0 km/h N-NW 340 -0,5 C 0,3 C
10.12.2018 01:12 0,3 C 94 % 1007,2 hPa 0,0 mm 0,0 km/h N-NW 340 -0,5 C 0,3 C
10.12.2018 01:11 0,3 C 94 % 1007,2 hPa 0,0 mm 0,0 km/h N-NW 340 -0,5 C 0,3 C
10.12.2018 01:10 0,3 C 94 % 1007,1 hPa 0,0 mm 0,0 km/h N-NW 340 -0,5 C 0,3 C
10.12.2018 01:09 0,3 C 94 % 1007,1 hPa 0,0 mm 0,0 km/h N-NW 340 -0,5 C 0,3 C
10.12.2018 01:08 0,3 C 94 % 1007,0 hPa 0,0 mm 0,0 km/h N-NW 340 -0,5 C 0,3 C
10.12.2018 01:07 0,4 C 94 % 1007,0 hPa 0,0 mm 0,0 km/h N-NW 340 -0,5 C 0,4 C
10.12.2018 01:06 0,4 C 94 % 1007,0 hPa 0,0 mm 0,0 km/h N-NW 340 -0,5 C 0,4 C
10.12.2018 01:05 0,5 C 94 % 1007,0 hPa 0,0 mm 0,0 km/h N-NW 340 -0,4 C 0,5 C
10.12.2018 01:04 0,5 C 94 % 1007,1 hPa 0,0 mm 0,0 km/h N-NW 340 -0,4 C 0,5 C
10.12.2018 01:03 0,5 C 94 % 1007,1 hPa 0,0 mm 0,0 km/h N-NW 341 -0,4 C 0,5 C
10.12.2018 01:02 0,5 C 94 % 1007,0 hPa 0,0 mm 0,0 km/h N-NW 346 -0,4 C 0,5 C
10.12.2018 01:01 0,5 C 94 % 1006,9 hPa 0,0 mm 0,0 km/h NW 325 -0,4 C 0,5 C
10.12.2018 01:00 0,4 C 94 % 1006,9 hPa 0,0 mm 0,0 km/h NW 325 -0,5 C 0,4 C
10.12.2018 00:59 0,4 C 94 % 1007,0 hPa 0,0 mm 0,0 km/h NW 325 -0,5 C 0,4 C
10.12.2018 00:58 0,4 C 94 % 1007,0 hPa 0,0 mm 0,0 km/h NW 325 -0,5 C 0,4 C
10.12.2018 00:57 0,3 C 94 % 1006,9 hPa 0,0 mm 0,0 km/h NW 318 -0,5 C 0,3 C
10.12.2018 00:56 0,3 C 94 % 1006,9 hPa 0,0 mm 0,0 km/h NW 318 -0,5 C 0,3 C
10.12.2018 00:55 0,3 C 94 % 1006,9 hPa 0,0 mm 0,0 km/h NW 318 -0,5 C 0,3 C
10.12.2018 00:54 0,3 C 94 % 1006,9 hPa 0,0 mm 0,0 km/h NW 318 -0,5 C 0,3 C
10.12.2018 00:53 0,2 C 94 % 1007,0 hPa 0,0 mm 0,0 km/h NW 318 -0,6 C 0,2 C
10.12.2018 00:52 0,2 C 94 % 1007,0 hPa 0,0 mm 0,0 km/h NW 318 -0,6 C 0,2 C
10.12.2018 00:51 0,2 C 94 % 1007,1 hPa 0,0 mm 0,0 km/h NW 318 -0,6 C 0,2 C
10.12.2018 00:50 0,2 C 94 % 1007,1 hPa 0,0 mm 0,0 km/h NW 318 -0,6 C 0,2 C
10.12.2018 00:49 0,2 C 94 % 1007,0 hPa 0,0 mm 0,0 km/h NW 318 -0,6 C 0,2 C
10.12.2018 00:48 0,2 C 94 % 1007,0 hPa 0,0 mm 0,0 km/h W 279 -0,6 C 0,2 C
10.12.2018 00:47 0,2 C 94 % 1007,0 hPa 0,0 mm 0,0 km/h W 279 -0,6 C 0,2 C
10.12.2018 00:46 0,3 C 94 % 1007,0 hPa 0,0 mm 0,0 km/h W 279 -0,5 C 0,3 C
10.12.2018 00:45 0,3 C 94 % 1007,0 hPa 0,0 mm 0,0 km/h W 279 -0,5 C 0,3 C
10.12.2018 00:44 0,3 C 94 % 1007,0 hPa 0,0 mm 0,0 km/h W 279 -0,5 C 0,3 C
10.12.2018 00:43 0,3 C 94 % 1007,0 hPa 0,0 mm 0,0 km/h W 279 -0,5 C 0,3 C
10.12.2018 00:42 0,4 C 94 % 1007,0 hPa 0,0 mm 0,0 km/h W 279 -0,5 C 0,4 C
10.12.2018 00:41 0,4 C 94 % 1006,9 hPa 0,0 mm 0,0 km/h W 279 -0,5 C 0,4 C
10.12.2018 00:40 0,4 C 94 % 1006,9 hPa 0,0 mm 0,0 km/h W 279 -0,5 C 0,4 C
10.12.2018 00:39 0,4 C 94 % 1006,9 hPa 0,0 mm 0,0 km/h W 279 -0,5 C 0,4 C
10.12.2018 00:38 0,4 C 94 % 1006,9 hPa 0,0 mm 0,0 km/h W 279 -0,5 C 0,4 C
10.12.2018 00:37 0,5 C 94 % 1006,9 hPa 0,0 mm 0,0 km/h W 279 -0,4 C 0,5 C
10.12.2018 00:36 0,5 C 94 % 1006,9 hPa 0,0 mm 0,0 km/h W 279 -0,4 C 0,5 C
10.12.2018 00:35 0,5 C 94 % 1006,9 hPa 0,0 mm 0,0 km/h W 279 -0,4 C 0,5 C
10.12.2018 00:34 0,5 C 94 % 1006,9 hPa 0,0 mm 0,0 km/h W 279 -0,4 C 0,5 C
10.12.2018 00:33 0,5 C 94 % 1006,9 hPa 0,0 mm 0,0 km/h W 279 -0,4 C 0,5 C
10.12.2018 00:32 0,6 C 94 % 1006,9 hPa 0,0 mm 0,0 km/h W 279 -0,3 C 0,6 C
10.12.2018 00:31 0,6 C 94 % 1006,9 hPa 0,0 mm 0,0 km/h W 279 -0,3 C 0,6 C
10.12.2018 00:30 0,5 C 94 % 1006,9 hPa 0,0 mm 0,0 km/h W 279 -0,4 C 0,5 C
10.12.2018 00:29 0,5 C 94 % 1006,9 hPa 0,0 mm 0,0 km/h W 279 -0,4 C 0,5 C
10.12.2018 00:28 0,5 C 94 % 1006,9 hPa 0,0 mm 0,0 km/h W 279 -0,4 C 0,5 C
10.12.2018 00:27 0,4 C 94 % 1006,9 hPa 0,0 mm 0,0 km/h W 279 -0,5 C 0,4 C
10.12.2018 00:26 0,4 C 94 % 1006,9 hPa 0,0 mm 0,0 km/h W 279 -0,5 C 0,4 C
10.12.2018 00:25 0,4 C 94 % 1006,8 hPa 0,0 mm 0,0 km/h W 279 -0,5 C 0,4 C
10.12.2018 00:24 0,4 C 94 % 1006,8 hPa 0,0 mm 0,0 km/h W 279 -0,5 C 0,4 C
10.12.2018 00:23 0,4 C 94 % 1006,8 hPa 0,0 mm 0,0 km/h W 279 -0,5 C 0,4 C
10.12.2018 00:22 0,4 C 94 % 1006,8 hPa 0,0 mm 0,0 km/h W 279 -0,5 C 0,4 C
10.12.2018 00:21 0,5 C 94 % 1006,8 hPa 0,0 mm 0,0 km/h W 279 -0,4 C 0,5 C
10.12.2018 00:20 0,5 C 94 % 1006,8 hPa 0,0 mm 0,0 km/h W 279 -0,4 C 0,5 C
10.12.2018 00:19 0,5 C 94 % 1006,7 hPa 0,0 mm 0,0 km/h W 279 -0,4 C 0,5 C
10.12.2018 00:18 0,6 C 94 % 1006,7 hPa 0,0 mm 0,0 km/h W 279 -0,3 C 0,6 C
10.12.2018 00:17 0,6 C 94 % 1006,7 hPa 0,0 mm 0,0 km/h W 279 -0,3 C 0,6 C
10.12.2018 00:16 0,6 C 94 % 1006,7 hPa 0,0 mm 0,0 km/h W 279 -0,3 C 0,6 C
10.12.2018 00:15 0,6 C 94 % 1006,8 hPa 0,0 mm 0,0 km/h W 279 -0,3 C 0,6 C
10.12.2018 00:14 0,6 C 94 % 1006,8 hPa 0,0 mm 0,0 km/h W 279 -0,3 C 0,6 C
10.12.2018 00:13 0,6 C 94 % 1006,8 hPa 0,0 mm 0,0 km/h W 279 -0,3 C 0,6 C
10.12.2018 00:12 0,6 C 94 % 1006,8 hPa 0,0 mm 0,0 km/h W 279 -0,3 C 0,6 C
10.12.2018 00:11 0,6 C 94 % 1006,8 hPa 0,0 mm 0,0 km/h W 279 -0,3 C 0,6 C
10.12.2018 00:10 0,7 C 94 % 1006,8 hPa 0,0 mm 0,0 km/h W 279 -0,2 C 0,7 C
10.12.2018 00:09 0,7 C 94 % 1006,8 hPa 0,0 mm 0,0 km/h W 279 -0,2 C 0,7 C
10.12.2018 00:08 0,7 C 94 % 1006,8 hPa 0,0 mm 0,0 km/h W 279 -0,2 C 0,7 C
10.12.2018 00:07 0,7 C 94 % 1006,8 hPa 0,0 mm 0,0 km/h W 279 -0,2 C 0,7 C
10.12.2018 00:06 0,7 C 94 % 1006,7 hPa 0,0 mm 0,0 km/h W 279 -0,2 C 0,7 C
10.12.2018 00:05 0,7 C 94 % 1006,8 hPa 0,0 mm 0,0 km/h W 279 -0,2 C 0,7 C
10.12.2018 00:04 0,7 C 94 % 1006,8 hPa 0,0 mm 0,0 km/h W 279 -0,2 C 0,7 C
10.12.2018 00:03 0,7 C 94 % 1006,8 hPa 0,0 mm 0,0 km/h W 279 -0,2 C 0,7 C
10.12.2018 00:02 0,7 C 95 % 1006,8 hPa 0,0 mm 0,0 km/h W 279 -0,0 C 0,7 C
10.12.2018 00:01 0,7 C 95 % 1006,8 hPa 0,0 mm 0,0 km/h W 279 -0,0 C 0,7 C
10.12.2018 00:00 0,7 C 95 % 1006,8 hPa 0,0 mm 0,0 km/h W 279 -0,0 C 0,7 C
_ Min-Zeit 00:47 00:03 00:06 - 00:00 - - 00:47 04:43
Minimum _ 0,2 C 94 % 1006,7 hPa - 0,0 km/h - - -0,6 C -5,2 C
_ Max-Zeit 05:47 00:00 06:15 05:03 04:43 - - 05:47 05:47
Maximum _ 1,7 C 95 % 1009,5 hPa 0,2 mm 13,7 km/h
N
- - 1,0 C 1,7 C
Durchschnitt _ 0,7 C 94 % 1008,1 hPa #0,2 mm 0,9 km/h W-NW - -0,1 C 0,6 C